| time (UTC) | temp C | wind direction | speed KPH | gust KPH | rain 1hr cm | rain 24hr cm | rain mn cm | humidity % | barometer mb |
| 20260502163333 | 14 | 136 | 6.4 | 14.5 | 0.00 | 0.00 | 0.00 | 43 | 1019.7 |
| 20260502162832 | 15 | 134 | 6.4 | 14.5 | 0.00 | 0.00 | 0.00 | 43 | 1019.7 |
| 20260502162330 | 15 | 165 | 8.0 | 20.9 | 0.00 | 0.00 | 0.00 | 38 | 1019.7 |
| 20260502161834 | 16 | 156 | 8.0 | 20.9 | 0.00 | 0.00 | 0.00 | 37 | 1019.9 |
| 20260502161332 | 16 | 154 | 8.0 | 17.7 | 0.00 | 0.00 | 0.00 | 38 | 1019.7 |
| 20260502160830 | 15 | 186 | 6.4 | 16.1 | 0.00 | 0.00 | 0.00 | 40 | 1019.9 |
| 20260502160328 | 15 | 142 | 4.8 | 12.9 | 0.00 | 0.00 | 0.00 | 40 | 1020.0 |
| 20260502152320 | 15 | 164 | 3.2 | 6.4 | 0.00 | 0.00 | 0.00 | 42 | 1020.2 |
| 20260502151813 | 14 | 155 | 1.6 | 8.0 | 0.00 | 0.00 | 0.00 | 44 | 1020.2 |
| 20260502151313 | 15 | 155 | 0.0 | 8.0 | 0.00 | 0.00 | 0.00 | 43 | 1020.2 |
| 20260502150811 | 15 | 192 | 0.0 | 3.2 | 0.00 | 0.00 | 0.00 | 40 | 1020.3 |
| 20260502150311 | 15 | 192 | 1.6 | 6.4 | 0.00 | 0.00 | 0.00 | 45 | 1020.3 |
| 20260502130523 | 21 | 140 | 3.2 | 12.9 | 0.00 | 0.00 | 0.00 | 24 | 1021.5 |
| 20260502123757 | 20 | 263 | 4.8 | 16.1 | 0.00 | 0.00 | 0.00 | 25 | 1021.8 |
| 20260502123257 | 20 | 308 | 1.6 | 12.9 | 0.00 | 0.00 | 0.00 | 22 | 1021.9 |
| 20260502123023 | 21 | 345 | 3.2 | 6.4 | 0.00 | 0.00 | 0.00 | 27 | 1021.9 |
| 20260502122306 | 20 | 327 | 3.2 | 8.0 | 0.00 | 0.00 | 0.00 | 26 | 1022.0 |
| 20260502122258 | 20 | 132 | 3.2 | 6.4 | 0.00 | 0.00 | 0.00 | 23 | 1021.9 |
| 20260502121250 | 20 | 333 | 3.2 | 12.9 | 0.00 | 0.00 | 0.00 | 24 | 1022.0 |
| 20260502120744 | 20 | 271 | 3.2 | 14.5 | 0.00 | 0.00 | 0.00 | 29 | 1022.1 |
| 20260502120238 | 20 | 302 | 3.2 | 14.5 | 0.00 | 0.00 | 0.00 | 26 | 1022.1 |
| 20260502115732 | 20 | 343 | 4.8 | 12.9 | 0.00 | 0.00 | 0.00 | 23 | 1022.1 |
| 20260502115457 | 20 | 342 | 4.8 | 16.1 | 0.00 | 0.00 | 0.00 | 28 | 1022.2 |
| 20260502114730 | 20 | 329 | 3.2 | 16.1 | 0.00 | 0.00 | 0.00 | 27 | 1022.2 |
| 20260502114230 | 20 | 269 | 3.2 | 14.5 | 0.00 | 0.00 | 0.00 | 26 | 1022.3 |
| 20260502113730 | 20 | 239 | 4.8 | 14.5 | 0.00 | 0.00 | 0.00 | 23 | 1022.2 |
| 20260502113230 | 20 | 315 | 4.8 | 14.5 | 0.00 | 0.00 | 0.00 | 26 | 1022.4 |
| 20260502112729 | 20 | 273 | 4.8 | 14.5 | 0.00 | 0.00 | 0.00 | 25 | 1022.6 |
| 20260502112231 | 20 | 333 | 4.8 | 14.5 | 0.00 | 0.00 | 0.00 | 25 | 1022.6 |
| 20260502111728 | 20 | 256 | 4.8 | 14.5 | 0.00 | 0.00 | 0.00 | 27 | 1022.6 |
| 20260502111228 | 19 | 296 | 6.4 | 14.5 | 0.00 | 0.00 | 0.00 | 29 | 1022.6 |
| 20260502110728 | 20 | 276 | 6.4 | 16.1 | 0.00 | 0.00 | 0.00 | 26 | 1022.8 |
| 20260502110453 | 19 | 300 | 6.4 | 16.1 | 0.00 | 0.00 | 0.00 | 29 | 1022.8 |
| 20260502105951 | 19 | 290 | 6.4 | 14.5 | 0.00 | 0.00 | 0.00 | 30 | 1022.8 |
| 20260502105229 | 19 | 298 | 6.4 | 16.1 | 0.00 | 0.00 | 0.00 | 32 | 1022.8 |
| 20260502104952 | 20 | 266 | 6.4 | 16.1 | 0.00 | 0.00 | 0.00 | 27 | 1022.9 |
| 20260502104229 | 19 | 279 | 8.0 | 16.1 | 0.00 | 0.00 | 0.00 | 29 | 1022.9 |
| 20260502103729 | 19 | 316 | 8.0 | 16.1 | 0.00 | 0.00 | 0.00 | 30 | 1023.0 |
| 20260502103448 | 18 | 225 | 8.0 | 16.1 | 0.00 | 0.00 | 0.00 | 28 | 1023.1 |
| 20260502102722 | 19 | 294 | 8.0 | 17.7 | 0.00 | 0.00 | 0.00 | 28 | 1023.1 |
| 20260502102217 | 18 | 331 | 8.0 | 17.7 | 0.00 | 0.00 | 0.00 | 31 | 1023.2 |
| 20260502101710 | 18 | 321 | 11.3 | 17.7 | 0.00 | 0.00 | 0.00 | 28 | 1023.3 |
| 20260502101425 | 18 | 340 | 11.3 | 19.3 | 0.00 | 0.00 | 0.00 | 30 | 1023.3 |
| 20260502101158 | 18 | 327 | 11.3 | 19.3 | 0.00 | 0.00 | 0.00 | 33 | 1023.5 |
| 20260502100206 | 18 | 324 | 11.3 | 17.7 | 0.00 | 0.00 | 0.00 | 31 | 1023.6 |
| 20260502091204 | 16 | 330 | 8.0 | 14.5 | 0.00 | 0.00 | 0.00 | 39 | 1024.0 |
| 20260502090704 | 16 | 326 | 8.0 | 14.5 | 0.00 | 0.00 | 0.00 | 41 | 1024.1 |
| 20260502090449 | 16 | 306 | 8.0 | 14.5 | 0.00 | 0.00 | 0.00 | 43 | 1024.1 |
| 20260502090157 | 16 | 326 | 8.0 | 14.5 | 0.00 | 0.00 | 0.00 | 42 | 1024.1 |
| 20260502071145 | 9 | 217 | 0.0 | 0.0 | 0.00 | 0.00 | 0.00 | 64 | 1025.1 |
| 20260502070646 | 8 | 217 | 0.0 | 0.0 | 0.00 | 0.00 | 0.00 | 64 | 1025.3 |
| 20260502070146 | 8 | 217 | 0.0 | 0.0 | 0.00 | 0.00 | 0.00 | 70 | 1025.3 |
| 20260502065646 | 7 | 217 | 0.0 | 0.0 | 0.00 | 0.00 | 0.00 | 72 | 1025.3 |
| 20260502065146 | 7 | 217 | 0.0 | 0.0 | 0.00 | 0.00 | 0.00 | 77 | 1025.4 |
| 20260502064646 | 6 | 217 | 0.0 | 0.0 | 0.00 | 0.00 | 0.00 | 80 | 1025.4 |
| 20260502064147 | 5 | 217 | 0.0 | 0.0 | 0.00 | 0.00 | 0.00 | 82 | 1025.4 |
| 20260502063641 | 5 | 217 | 0.0 | 0.0 | 0.00 | 0.00 | 0.00 | 83 | 1025.5 |
| 20260502063142 | 4 | 217 | 0.0 | 0.0 | 0.00 | 0.00 | 0.00 | 86 | 1025.4 |
| 20260502062642 | 3 | 217 | 0.0 | 0.0 | 0.00 | 0.00 | 0.00 | 85 | 1025.5 |
| 20260502062404 | 2 | 217 | 0.0 | 0.0 | 0.00 | 0.00 | 0.00 | 90 | 1025.5 |
| 20260502062347 | 3 | 217 | 0.0 | 0.0 | 0.00 | 0.00 | 0.00 | 88 | 1025.4 |
| 20260502061142 | 2 | 217 | 0.0 | 0.0 | 0.00 | 0.00 | 0.00 | 90 | 1025.5 |
| 20260502060639 | 2 | 217 | 0.0 | 0.0 | 0.00 | 0.00 | 0.00 | 90 | 1025.5 |
| 20260502060138 | 2 | 217 | 0.0 | 0.0 | 0.00 | 0.00 | 0.00 | 90 | 1025.6 |
| 20260502055635 | 2 | 217 | 0.0 | 0.0 | 0.00 | 0.00 | 0.00 | 89 | 1025.6 |
| 20260502055135 | 2 | 217 | 0.0 | 0.0 | 0.00 | 0.00 | 0.00 | 87 | 1025.6 |
| 20260502054633 | 2 | 217 | 0.0 | 0.0 | 0.00 | 0.00 | 0.00 | 88 | 1025.7 |
| 20260502054134 | 2 | 217 | 0.0 | 0.0 | 0.00 | 0.00 | 0.00 | 88 | 1025.7 |
| 20260502053632 | 2 | 217 | 0.0 | 0.0 | 0.00 | 0.00 | 0.00 | 88 | 1025.7 |
| 20260502053620 | 2 | 217 | 0.0 | 0.0 | 0.00 | 0.00 | 0.00 | 87 | 1025.7 |
| 20260502052628 | 2 | 217 | 0.0 | 0.0 | 0.00 | 0.00 | 0.00 | 88 | 1025.7 |
| 20260502052121 | 2 | 217 | 0.0 | 0.0 | 0.00 | 0.00 | 0.00 | 89 | 1025.7 |
| 20260502051615 | 2 | 217 | 0.0 | 0.0 | 0.00 | 0.00 | 0.00 | 88 | 1025.7 |
| 20260502051110 | 2 | 217 | 0.0 | 0.0 | 0.00 | 0.00 | 0.00 | 87 | 1025.7 |
| 20260502050831 | 2 | 217 | 0.0 | 0.0 | 0.00 | 0.00 | 0.00 | 88 | 1025.7 |
| 20260502050058 | 2 | 217 | 0.0 | 0.0 | 0.00 | 0.00 | 0.00 | 88 | 1025.7 |
| 20260502045551 | 2 | 217 | 0.0 | 0.0 | 0.00 | 0.00 | 0.00 | 88 | 1025.7 |
| 20260502045313 | 1 | 217 | 0.0 | 0.0 | 0.00 | 0.00 | 0.00 | 87 | 1025.7 |
| 20260502044545 | 2 | 217 | 0.0 | 0.0 | 0.00 | 0.00 | 0.00 | 87 | 1025.7 |
| 20260502044044 | 2 | 217 | 0.0 | 0.0 | 0.00 | 0.00 | 0.00 | 86 | 1025.7 |
| 20260502043543 | 2 | 217 | 0.0 | 0.0 | 0.00 | 0.00 | 0.00 | 87 | 1025.6 |
| 20260502043042 | 2 | 217 | 0.0 | 0.0 | 0.00 | 0.00 | 0.00 | 87 | 1025.6 |
| 20260502042541 | 2 | 217 | 0.0 | 0.0 | 0.00 | 0.00 | 0.00 | 87 | 1025.6 |
| 20260502042040 | 2 | 217 | 0.0 | 0.0 | 0.00 | 0.00 | 0.00 | 88 | 1025.6 |
| 20260502041539 | 2 | 217 | 0.0 | 0.0 | 0.00 | 0.00 | 0.00 | 88 | 1025.6 |
| 20260502041040 | 2 | 217 | 0.0 | 0.0 | 0.00 | 0.00 | 0.00 | 88 | 1025.7 |
| 20260502040538 | 2 | 217 | 0.0 | 0.0 | 0.00 | 0.00 | 0.00 | 88 | 1025.7 |
| 20260502040036 | 2 | 217 | 0.0 | 0.0 | 0.00 | 0.00 | 0.00 | 88 | 1025.6 |
| 20260502035535 | 2 | 217 | 0.0 | 0.0 | 0.00 | 0.00 | 0.00 | 87 | 1025.7 |
| 20260502035301 | 2 | 217 | 0.0 | 0.0 | 0.00 | 0.00 | 0.00 | 87 | 1025.7 |
| 20260502034534 | 2 | 217 | 0.0 | 0.0 | 0.00 | 0.00 | 0.00 | 86 | 1025.7 |
| 20260502034031 | 2 | 217 | 0.0 | 0.0 | 0.00 | 0.00 | 0.00 | 86 | 1025.7 |
| 20260502033531 | 2 | 217 | 0.0 | 0.0 | 0.00 | 0.00 | 0.00 | 86 | 1025.7 |
| 20260502033029 | 2 | 217 | 0.0 | 0.0 | 0.00 | 0.00 | 0.00 | 86 | 1025.7 |
| 20260502032529 | 2 | 217 | 0.0 | 0.0 | 0.00 | 0.00 | 0.00 | 87 | 1025.7 |
| 20260502032030 | 2 | 217 | 0.0 | 0.0 | 0.00 | 0.00 | 0.00 | 88 | 1025.8 |
| 20260502031531 | 2 | 217 | 0.0 | 0.0 | 0.00 | 0.00 | 0.00 | 88 | 1025.7 |
| 20260502031255 | 2 | 217 | 0.0 | 0.0 | 0.00 | 0.00 | 0.00 | 88 | 1025.8 |
| 20260502030532 | 2 | 217 | 0.0 | 0.0 | 0.00 | 0.00 | 0.00 | 88 | 1025.8 |
| 20260502030528 | 2 | 217 | 0.0 | 0.0 | 0.00 | 0.00 | 0.00 | 87 | 1025.8 |
| 20260502025529 | 2 | 217 | 0.0 | 0.0 | 0.00 | 0.00 | 0.00 | 86 | 1025.8 |
| 20260502025029 | 2 | 217 | 0.0 | 0.0 | 0.00 | 0.00 | 0.00 | 86 | 1025.8 |
| 20260502024528 | 2 | 217 | 0.0 | 0.0 | 0.00 | 0.00 | 0.00 | 85 | 1025.8 |
| 20260502024030 | 2 | 217 | 0.0 | 0.0 | 0.00 | 0.00 | 0.00 | 85 | 1025.9 |
| 20260502023531 | 2 | 217 | 0.0 | 0.0 | 0.00 | 0.00 | 0.00 | 86 | 1026.0 |
| 20260502023031 | 2 | 217 | 0.0 | 0.0 | 0.00 | 0.00 | 0.00 | 86 | 1025.9 |
| 20260502022530 | 2 | 217 | 0.0 | 0.0 | 0.00 | 0.00 | 0.00 | 86 | 1026.0 |
| 20260502022030 | 2 | 217 | 0.0 | 0.0 | 0.00 | 0.00 | 0.00 | 87 | 1025.9 |
| 20260502021530 | 2 | 217 | 0.0 | 0.0 | 0.00 | 0.00 | 0.00 | 87 | 1026.0 |
| 20260502021031 | 2 | 217 | 0.0 | 0.0 | 0.00 | 0.00 | 0.00 | 86 | 1026.0 |
| 20260502020530 | 2 | 217 | 0.0 | 0.0 | 0.00 | 0.00 | 0.00 | 87 | 1026.0 |
| 20260502020031 | 2 | 217 | 0.0 | 0.0 | 0.00 | 0.00 | 0.00 | 86 | 1026.0 |
| 20260502015531 | 3 | 217 | 0.0 | 0.0 | 0.00 | 0.00 | 0.00 | 85 | 1026.0 |
| 20260502015514 | 3 | 217 | 0.0 | 0.0 | 0.00 | 0.00 | 0.00 | 85 | 1026.0 |
| 20260502014529 | 3 | 217 | 0.0 | 0.0 | 0.00 | 0.00 | 0.00 | 84 | 1026.0 |
| 20260502014027 | 3 | 217 | 0.0 | 0.0 | 0.00 | 0.00 | 0.00 | 84 | 1026.2 |
| 20260502013525 | 3 | 217 | 0.0 | 0.0 | 0.00 | 0.00 | 0.00 | 84 | 1026.2 |
| 20260502013251 | 3 | 217 | 0.0 | 0.0 | 0.00 | 0.00 | 0.00 | 83 | 1026.2 |
| 20260502012525 | 3 | 217 | 0.0 | 0.0 | 0.00 | 0.00 | 0.00 | 82 | 1026.2 |
| 20260502012024 | 3 | 217 | 0.0 | 0.0 | 0.00 | 0.00 | 0.00 | 83 | 1026.2 |
| 20260502011531 | 3 | 217 | 0.0 | 0.0 | 0.00 | 0.00 | 0.00 | 83 | 1026.3 |
| 20260502011026 | 3 | 217 | 0.0 | 0.0 | 0.00 | 0.00 | 0.00 | 85 | 1026.3 |
| 20260502010524 | 3 | 217 | 0.0 | 0.0 | 0.00 | 0.00 | 0.00 | 85 | 1026.3 |
| 20260502010023 | 3 | 217 | 0.0 | 0.0 | 0.00 | 0.00 | 0.00 | 84 | 1026.3 |
| 20260502005524 | 3 | 217 | 0.0 | 0.0 | 0.00 | 0.00 | 0.00 | 84 | 1026.2 |
| 20260502005024 | 3 | 217 | 0.0 | 0.0 | 0.00 | 0.00 | 0.00 | 84 | 1026.3 |
| 20260502004521 | 3 | 217 | 0.0 | 0.0 | 0.00 | 0.00 | 0.00 | 83 | 1026.3 |
| 20260502004234 | 3 | 217 | 0.0 | 0.0 | 0.00 | 0.00 | 0.00 | 83 | 1026.3 |
| 20260502003516 | 3 | 217 | 0.0 | 0.0 | 0.00 | 0.00 | 0.00 | 82 | 1026.3 |
| 20260502003239 | 3 | 217 | 0.0 | 0.0 | 0.00 | 0.00 | 0.00 | 82 | 1026.3 |
| 20260502002515 | 3 | 217 | 0.0 | 0.0 | 0.00 | 0.00 | 0.00 | 82 | 1026.3 |
| 20260502002015 | 3 | 217 | 0.0 | 0.0 | 0.00 | 0.00 | 0.00 | 83 | 1026.4 |
| 20260502001736 | 3 | 217 | 0.0 | 0.0 | 0.00 | 0.00 | 0.00 | 83 | 1026.4 |
| 20260502001014 | 3 | 217 | 0.0 | 0.0 | 0.00 | 0.00 | 0.00 | 83 | 1026.4 |
| 20260502000514 | 3 | 217 | 0.0 | 0.0 | 0.00 | 0.00 | 0.00 | 81 | 1026.4 |
| 20260502000247 | 3 | 217 | 0.0 | 0.0 | 0.00 | 0.00 | 0.00 | 82 | 1026.4 |
| 20260501235510 | 3 | 217 | 0.0 | 0.0 | 0.00 | 0.00 | 0.00 | 82 | 1026.4 |
| 20260501235011 | 3 | 217 | 0.0 | 0.0 | 0.00 | 0.00 | 0.00 | 83 | 1026.5 |
| 20260501234511 | 3 | 217 | 0.0 | 0.0 | 0.00 | 0.00 | 0.00 | 84 | 1026.4 |
| 20260501234011 | 3 | 217 | 0.0 | 0.0 | 0.00 | 0.00 | 0.00 | 83 | 1026.4 |
| 20260501233510 | 3 | 217 | 0.0 | 0.0 | 0.00 | 0.00 | 0.00 | 82 | 1026.4 |
| 20260501233007 | 3 | 217 | 0.0 | 0.0 | 0.00 | 0.00 | 0.00 | 83 | 1026.5 |
| 20260501232505 | 4 | 217 | 0.0 | 0.0 | 0.00 | 0.00 | 0.00 | 83 | 1026.4 |
| 20260501232002 | 3 | 217 | 0.0 | 0.0 | 0.00 | 0.00 | 0.00 | 82 | 1026.5 |
| 20260501231501 | 4 | 217 | 0.0 | 0.0 | 0.00 | 0.00 | 0.00 | 81 | 1026.6 |
| 20260501231002 | 4 | 217 | 0.0 | 0.0 | 0.00 | 0.00 | 0.00 | 80 | 1026.6 |
| 20260501230501 | 4 | 217 | 0.0 | 0.0 | 0.00 | 0.00 | 0.00 | 81 | 1026.6 |
| 20260501225958 | 4 | 217 | 0.0 | 1.6 | 0.00 | 0.00 | 0.00 | 81 | 1026.7 |
| 20260501225458 | 4 | 217 | 0.0 | 1.6 | 0.00 | 0.00 | 0.00 | 81 | 1026.7 |
| 20260501224959 | 4 | 217 | 0.0 | 1.6 | 0.00 | 0.00 | 0.00 | 82 | 1026.7 |
| 20260501224456 | 4 | 217 | 0.0 | 3.2 | 0.00 | 0.00 | 0.00 | 81 | 1026.7 |
| 20260501224217 | 5 | 217 | 0.0 | 3.2 | 0.00 | 0.00 | 0.00 | 79 | 1026.6 |
| 20260501223454 | 5 | 217 | 0.0 | 3.2 | 0.00 | 0.00 | 0.00 | 80 | 1026.6 |
| 20260501223219 | 5 | 217 | 1.6 | 3.2 | 0.00 | 0.00 | 0.00 | 80 | 1026.8 |
| 20260501222452 | 5 | 217 | 0.0 | 3.2 | 0.00 | 0.00 | 0.00 | 81 | 1026.8 |
| 20260501222215 | 4 | 217 | 0.0 | 0.0 | 0.00 | 0.00 | 0.00 | 82 | 1026.8 |
| 20260501221448 | 4 | 217 | 0.0 | 1.6 | 0.00 | 0.00 | 0.00 | 81 | 1026.7 |
| 20260501220947 | 5 | 217 | 0.0 | 1.6 | 0.00 | 0.00 | 0.00 | 79 | 1026.8 |
| 20260501220444 | 5 | 217 | 0.0 | 1.6 | 0.00 | 0.00 | 0.00 | 80 | 1026.7 |
| 20260501220434 | 5 | 217 | 0.0 | 1.6 | 0.00 | 0.00 | 0.00 | 81 | 1026.6 |
| 20260501215444 | 5 | 217 | 0.0 | 0.0 | 0.00 | 0.00 | 0.00 | 81 | 1026.7 |
| 20260501215435 | 5 | 217 | 0.0 | 0.0 | 0.00 | 0.00 | 0.00 | 80 | 1026.6 |
| 20260501214442 | 5 | 217 | 0.0 | 0.0 | 0.00 | 0.00 | 0.00 | 79 | 1026.6 |
| 20260501213942 | 5 | 217 | 0.0 | 1.6 | 0.00 | 0.00 | 0.00 | 77 | 1026.5 |
| 20260501213718 | 5 | 217 | 0.0 | 1.6 | 0.00 | 0.00 | 0.00 | 76 | 1026.6 |
| 20260501212942 | 5 | 217 | 0.0 | 1.6 | 0.00 | 0.00 | 0.00 | 78 | 1026.6 |
| 20260501212442 | 5 | 217 | 0.0 | 0.0 | 0.00 | 0.00 | 0.00 | 79 | 1026.6 |
| 20260501212206 | 5 | 217 | 0.0 | 0.0 | 0.00 | 0.00 | 0.00 | 79 | 1026.6 |
| 20260501211442 | 5 | 217 | 0.0 | 0.0 | 0.00 | 0.00 | 0.00 | 79 | 1026.5 |
| 20260501210942 | 5 | 217 | 0.0 | 0.0 | 0.00 | 0.00 | 0.00 | 78 | 1026.5 |
| 20260501210445 | 5 | 217 | 0.0 | 0.0 | 0.00 | 0.00 | 0.00 | 76 | 1026.5 |
| 20260501205942 | 6 | 217 | 0.0 | 0.0 | 0.00 | 0.00 | 0.00 | 75 | 1026.5 |
| 20260501205704 | 6 | 217 | 0.0 | 0.0 | 0.00 | 0.00 | 0.00 | 74 | 1026.5 |
| 20260501204942 | 6 | 217 | 0.0 | 0.0 | 0.00 | 0.00 | 0.00 | 75 | 1026.6 |
| 20260501204442 | 6 | 217 | 0.0 | 0.0 | 0.00 | 0.00 | 0.00 | 76 | 1026.6 |
| 20260501204204 | 6 | 217 | 0.0 | 0.0 | 0.00 | 0.00 | 0.00 | 77 | 1026.6 |
| 20260501203442 | 5 | 217 | 0.0 | 0.0 | 0.00 | 0.00 | 0.00 | 77 | 1026.5 |
| 20260501203209 | 5 | 217 | 0.0 | 0.0 | 0.00 | 0.00 | 0.00 | 77 | 1026.4 |
| 20260501202439 | 6 | 217 | 0.0 | 0.0 | 0.00 | 0.00 | 0.00 | 76 | 1026.5 |
| 20260501201938 | 6 | 217 | 0.0 | 0.0 | 0.00 | 0.00 | 0.00 | 77 | 1026.5 |
| 20260501201658 | 6 | 217 | 0.0 | 0.0 | 0.00 | 0.00 | 0.00 | 76 | 1026.3 |
| 20260501200935 | 6 | 217 | 0.0 | 0.0 | 0.00 | 0.00 | 0.00 | 75 | 1026.2 |
| 20260501200431 | 6 | 217 | 0.0 | 0.0 | 0.00 | 0.00 | 0.00 | 75 | 1026.0 |
| 20260501195932 | 6 | 217 | 0.0 | 0.0 | 0.00 | 0.00 | 0.00 | 75 | 1026.0 |
| 20260501195431 | 6 | 217 | 0.0 | 0.0 | 0.00 | 0.00 | 0.00 | 76 | 1026.0 |
| 20260501194930 | 6 | 217 | 0.0 | 0.0 | 0.00 | 0.00 | 0.00 | 76 | 1025.9 |
| 20260501194431 | 6 | 217 | 0.0 | 0.0 | 0.00 | 0.00 | 0.00 | 75 | 1025.9 |
| 20260501193930 | 6 | 217 | 0.0 | 0.0 | 0.00 | 0.00 | 0.00 | 75 | 1025.8 |
| 20260501193428 | 6 | 217 | 0.0 | 0.0 | 0.00 | 0.00 | 0.00 | 75 | 1025.8 |
| 20260501192921 | 6 | 217 | 0.0 | 0.0 | 0.00 | 0.00 | 0.00 | 74 | 1025.7 |
| 20260501192422 | 6 | 217 | 0.0 | 0.0 | 0.00 | 0.00 | 0.00 | 73 | 1025.7 |
| 20260501191919 | 7 | 217 | 0.0 | 1.6 | 0.00 | 0.00 | 0.00 | 72 | 1025.6 |
| 20260501191417 | 7 | 217 | 0.0 | 3.2 | 0.00 | 0.00 | 0.00 | 72 | 1025.6 |
| 20260501190916 | 7 | 217 | 0.0 | 3.2 | 0.00 | 0.00 | 0.00 | 71 | 1025.5 |
| 20260501190414 | 6 | 217 | 0.0 | 0.0 | 0.00 | 0.00 | 0.00 | 73 | 1025.5 |
| 20260501185913 | 7 | 217 | 1.6 | 4.8 | 0.00 | 0.00 | 0.00 | 73 | 1025.4 |
| 20260501185413 | 7 | 217 | 1.6 | 4.8 | 0.00 | 0.00 | 0.00 | 69 | 1025.3 |
| 20260501184914 | 7 | 217 | 1.6 | 3.2 | 0.00 | 0.00 | 0.00 | 68 | 1025.0 |
| 20260501184413 | 7 | 217 | 0.0 | 3.2 | 0.00 | 0.00 | 0.00 | 70 | 1025.1 |
| 20260501183913 | 7 | 217 | 0.0 | 0.0 | 0.00 | 0.00 | 0.00 | 71 | 1025.0 |
| 20260501183412 | 7 | 217 | 0.0 | 3.2 | 0.00 | 0.00 | 0.00 | 70 | 1024.9 |
| 20260501182912 | 8 | 217 | 0.0 | 3.2 | 0.00 | 0.00 | 0.00 | 64 | 1024.8 |
| 20260501182411 | 8 | 217 | 0.0 | 0.0 | 0.00 | 0.00 | 0.00 | 67 | 1024.7 |
| 20260501182402 | 8 | 217 | 0.0 | 0.0 | 0.00 | 0.00 | 0.00 | 68 | 1024.7 |
| 20260501181409 | 8 | 217 | 0.0 | 3.2 | 0.00 | 0.00 | 0.00 | 66 | 1024.5 |
| 20260501180907 | 8 | 217 | 0.0 | 3.2 | 0.00 | 0.00 | 0.00 | 64 | 1024.5 |
| 20260501180901 | 8 | 217 | 0.0 | 3.2 | 0.00 | 0.00 | 0.00 | 62 | 1024.5 |
| 20260501175903 | 8 | 217 | 0.0 | 0.0 | 0.00 | 0.00 | 0.00 | 65 | 1024.5 |
| 20260501175403 | 9 | 217 | 0.0 | 1.6 | 0.00 | 0.00 | 0.00 | 60 | 1024.5 |
| 20260501174906 | 9 | 217 | 0.0 | 3.2 | 0.00 | 0.00 | 0.00 | 61 | 1024.4 |
| 20260501174358 | 10 | 217 | 0.0 | 3.2 | 0.00 | 0.00 | 0.00 | 57 | 1024.4 |
| 20260501174120 | 9 | 138 | 0.0 | 0.0 | 0.00 | 0.00 | 0.00 | 60 | 1024.1 |
| 20260501173345 | 10 | 223 | 0.0 | 0.0 | 0.00 | 0.00 | 0.00 | 60 | 1024.2 |
| 20260501173105 | 10 | 223 | 0.0 | 0.0 | 0.00 | 0.00 | 0.00 | 56 | 1024.1 |
| 20260501172605 | 11 | 223 | 0.0 | 3.2 | 0.00 | 0.00 | 0.00 | 56 | 1024.1 |
| 20260501171838 | 11 | 223 | 0.0 | 3.2 | 0.00 | 0.00 | 0.00 | 51 | 1024.0 |
| 20260501171337 | 11 | 223 | 0.0 | 0.0 | 0.00 | 0.00 | 0.00 | 52 | 1024.0 |
| 20260501170835 | 11 | 223 | 1.6 | 6.4 | 0.00 | 0.00 | 0.00 | 48 | 1023.9 |
| 20260501170332 | 12 | 223 | 1.6 | 16.1 | 0.00 | 0.00 | 0.00 | 44 | 1023.9 |
| 20260501165831 | 12 | 257 | 3.2 | 16.1 | 0.00 | 0.00 | 0.00 | 45 | 1023.9 |
| 20260501165330 | 13 | 211 | 6.4 | 17.7 | 0.00 | 0.00 | 0.00 | 42 | 1023.9 |
| 20260501165100 | 12 | 275 | 6.4 | 17.7 | 0.00 | 0.00 | 0.00 | 40 | 1023.8 |
| 20260501164329 | 12 | 275 | 4.8 | 17.7 | 0.00 | 0.00 | 0.00 | 40 | 1023.8 |
| 20260501163829 | 12 | 321 | 6.4 | 22.5 | 0.00 | 0.00 | 0.00 | 39 | 1023.8 |